Simultaneous Nadir Overpasses (SNOs) Predictions

Prediction of SNOs between LANDSAT-8 and TERRA Satellite Orbit:

Table of predicted SNOs for the next 14.0 days since TLE Epoch: 1/7/2023
Index Date (LANDSAT-8) Time (LANDSAT-8) Lat,Lon (LANDSAT-8) SZA (LANDSAT-8 ) Date (TERRA) Time (TERRA) Lat,Lon (TERRA) SZA (TERRA ) Distance(km) Time Diff (sec)
1 01/07/2023 06:51:21 -78.05, 7.68 64.20 01/07/2023 06:52:33 -78.05, 7.72 64.13 0.96 72
2 01/07/2023 07:40:41 77.74, 176.75 116.17 01/07/2023 07:41:50 77.74, 176.74 116.22 0.45 69
3 01/07/2023 08:29:58 -77.33, -13.95 63.39 01/07/2023 08:31:03 -77.34, -14.00 63.35 1.81 65
4 01/07/2023 09:19:20 77.09, 154.63 116.87 01/07/2023 09:20:22 77.11, 154.54 116.90 3.26 62
5 01/07/2023 10:08:52 -77.38, -38.84 63.45 01/07/2023 10:09:49 -77.36, -38.77 63.38 2.11 57
6 01/07/2023 10:58:11 76.99, 130.27 116.97 01/07/2023 10:59:05 76.99, 130.29 117.02 0.69 54
7 01/07/2023 11:47:26 -76.48, -60.29 62.50 01/07/2023 11:48:16 -76.49, -60.31 62.46 0.63 50
8 01/07/2023 12:36:46 76.13, 108.50 117.87 01/07/2023 12:37:33 76.14, 108.44 117.90 2.10 47
9 01/07/2023 13:26:21 -76.58, -85.33 62.61 01/07/2023 13:27:03 -76.56, -85.23 62.54 3.30 42
10 01/07/2023 14:15:36 75.98, 84.24 118.02 01/07/2023 14:16:15 75.97, 84.29 118.07 1.86 39
11 01/07/2023 15:04:50 -75.41,-106.43 61.40 01/07/2023 15:05:25 -75.40,-106.42 61.36 0.60 35
12 01/07/2023 15:54:06 74.83, 62.74 119.17 01/07/2023 15:54:38 74.84, 62.72 119.20 0.91 32
13 01/07/2023 16:43:14 -73.93,-127.47 59.96 01/07/2023 16:43:42 -73.94,-127.52 59.95 2.07 28
14 01/07/2023 17:32:55 74.62, 38.53 119.37 01/07/2023 17:33:19 74.60, 38.60 119.42 3.08 24
15 01/07/2023 18:22:09 -74.03,-152.42 60.07 01/07/2023 18:22:29 -74.02,-152.38 60.03 1.90 20
16 01/07/2023 19:11:18 73.06, 17.28 120.86 01/07/2023 19:11:35 73.06, 17.28 120.88 0.35 17
17 01/07/2023 20:00:24 -72.03,-173.15 58.18 01/07/2023 20:00:37 -72.03,-173.16 58.18 0.69 13
18 01/07/2023 20:49:33 71.02, -3.84 122.74 01/07/2023 20:49:43 71.03, -3.88 122.73 2.33 10
19 01/07/2023 21:38:28 -69.36, 166.19 55.79 01/07/2023 21:38:34 -69.38, 166.14 55.80 3.20 6
20 01/07/2023 22:28:18 70.58, -27.89 123.13 01/07/2023 22:28:20 70.57, -27.86 123.15 1.71 2
21 01/07/2023 23:17:22 -69.41, 141.40 55.84 01/07/2023 23:17:20 -69.41, 141.41 55.84 0.85 2
22 01/08/2023 00:06:18 67.63, -48.78 125.71 01/08/2023 00:06:13 67.64, -48.80 125.70 0.89 5
23 01/08/2023 00:55:05 -65.55, 121.03 52.52 01/08/2023 00:54:56 -65.56, 121.00 52.55 1.49 9
24 01/08/2023 01:45:00 67.07, -72.88 126.19 01/08/2023 01:44:47 67.04, -72.84 126.20 3.22 13
25 01/08/2023 02:34:06 -66.00, 95.87 52.91 01/08/2023 02:33:49 -65.98, 95.91 52.91 2.64 17
26 01/08/2023 03:22:32 62.44, -93.40 130.03 01/08/2023 03:22:12 62.44, -93.39 130.00 0.78 20
27 01/08/2023 04:11:19 -60.27, 75.81 48.25 01/08/2023 04:10:55 -60.27, 75.81 48.28 0.61 24
28 01/08/2023 04:59:34 55.98,-113.98 135.05 01/08/2023 04:59:07 55.99,-113.99 134.99 1.50 27
29 01/08/2023 05:47:56 -52.33, 55.49 42.31 01/08/2023 05:47:25 -52.34, 55.48 42.39 1.10 31
30 01/08/2023 06:38:02 54.51,-137.93 136.13 01/08/2023 06:37:27 54.48,-137.90 136.08 2.87 35
31 01/08/2023 07:25:23 -47.26, 32.91 38.90 01/08/2023 07:24:45 -47.28, 32.90 39.02 2.93 38
32 01/08/2023 08:14:57 47.53,-159.57 140.92 01/08/2023 08:14:15 47.52,-159.55 140.83 1.41 42
33 01/08/2023 09:04:25 -47.78, 7.98 39.25 01/08/2023 09:03:39 -47.78, 8.02 39.35 2.72 46
34 01/08/2023 09:53:57 47.94, 175.55 140.64 01/08/2023 09:53:08 47.97, 175.59 140.53 4.28 49
35 01/08/2023 10:43:25 -48.20, -16.90 39.53 01/08/2023 10:42:32 -48.22, -16.85 39.64 5.20 53
36 01/08/2023 11:32:58 48.41, 150.64 140.32 01/08/2023 11:32:01 48.41, 150.72 140.23 6.12 57
37 01/08/2023 12:45:56 -45.05, 149.95 110.40 01/08/2023 12:44:53 -45.08, 149.88 110.29 6.47 63
38 01/08/2023 13:35:20 45.01, -42.41 69.57 01/08/2023 13:34:14 45.04, -42.47 69.67 5.37 66
39 01/08/2023 14:24:49 -45.05, 125.23 110.41 01/08/2023 14:23:39 -45.05, 125.18 110.32 4.00 70



Historial Predications of SNOs between LANDSAT-8 and TERRA
